Theta_e
324 322 322 323 324 327 328 330 331 331 340 343 340 337 339 339 338 336 336 339 339 337 337 337 336 338 340 341 342 341 344 346 347 355 354 352 350 348 343 338 333 327 326 328
323 323 324 325 325 325 326 328 330 333 338 340 341 337 339 340 340 335 336 338 339 340 339 340 338 339 340 342 345 344 346 348 351 355 353 351 348 345 338 334 329 326 328 328
323 324 325 324 325 325 325 325 328 333 335 338 339 337 335 334 334 336 336 335 338 339 340 342 343 341 343 344 347 349 348 353 354 353 351 348 346 338 333 329 325 327 328 328
324 325 324 324 323 324 325 325 325 328 330 338 337 337 337 332 332 332 334 335 334 339 340 341 344 344 344 346 349 353 352 357 355 352 350 345 341 335 330 326 326 327 327 329
324 323 324 324 323 324 323 325 325 325 328 330 332 333 329 330 329 330 332 332 333 334 339 340 341 343 344 344 349 352 358 357 354 351 348 344 337 335 328 325 327 326 327 328
325 325 325 325 324 323 323 323 325 326 326 329 328 328 327 328 331 330 330 332 333 332 333 339 340 341 344 345 350 358 357 356 352 349 346 343 337 332 326 329 327 327 328 328
325 326 326 325 324 325 323 325 326 327 327 326 327 327 328 330 330 330 331 331 332 333 333 334 340 342 349 349 358 357 356 353 351 348 346 339 335 329 328 329 328 329 330 329
328 328 326 326 324 324 324 326 325 329 329 326 327 327 328 330 330 331 330 330 330 331 331 336 351 354 351 348 353 356 355 353 351 348 342 337 333 332 326 330 329 329 329 329
328 328 328 326 325 324 324 327 325 328 328 327 327 329 330 330 330 329 328 328 329 333 335 333 335 351 341 335 331 352 355 352 348 345 341 338 335 336 329 331 328 328 329 331
329 330 327 328 325 325 325 325 327 331 334 335 327 332 332 336 333 330 329 330 332 335 332 332 335 353 346 336 350 355 353 349 346 343 340 338 338 336 331 330 328 329 331 331
329 334 328 328 328 325 325 325 327 330 334 334 334 330 336 338 335 333 333 333 333 334 332 334 335 357 358 358 356 352 350 345 343 341 340 339 339 336 331 333 328 329 330 332
328 335 332 328 328 328 326 328 330 331 334 333 335 333 333 331 332 337 335 335 336 337 333 332 336 350 356 355 352 347 343 342 345 343 342 340 338 336 334 334 330 332 331 330
332 336 332 331 330 331 330 328 329 335 345 339 336 336 334 335 334 333 333 332 335 336 335 336 341 340 351 355 353 352 347 344 342 345 343 342 340 337 336 335 332 332 331 329
327 332 336 336 332 331 333 330 329 332 336 332 330 331 331 331 334 333 335 333 332 333 333 334 335 340 343 350 353 350 348 347 344 343 343 342 342 339 336 334 333 332 329 327
331 337 330 331 331 330 329 329 329 333 334 333 329 330 330 331 333 332 337 334 333 333 332 334 338 338 343 345 347 348 347 346 346 345 344 343 342 338 335 334 333 331 328 323
340 341 330 328 328 330 330 329 329 328 330 329 331 332 331 331 330 331 332 335 333 335 335 334 336 338 344 345 346 347 348 348 346 346 345 343 341 337 335 333 332 328 322 321
333 336 338 338 332 330 333 330 329 331 331 330 330 331 330 330 332 333 332 333 333 336 335 335 338 341 340 335 343 346 348 348 347 346 343 341 339 336 333 331 328 321 319 318
333 335 333 336 334 339 333 330 329 329 331 331 331 332 330 330 330 330 330 331 338 336 338 337 337 340 333 333 334 335 346 348 347 344 339 338 336 333 331 326 322 320 318 316
327 330 329 332 333 330 327 328 329 331 333 332 332 332 331 331 331 332 333 333 336 340 342 341 338 337 336 336 335 336 342 348 346 343 337 335 333 329 326 322 319 318 315 312
328 329 332 332 330 333 329 326 326 327 330 333 332 332 334 334 333 332 339 338 341 342 342 340 336 336 337 338 339 339 341 345 344 340 336 334 329 326 322 320 318 315 314 313
325 328 333 334 334 332 329 328 330 334 337 334 334 338 338 334 335 344 338 340 340 341 339 337 336 337 339 338 339 340 341 343 342 337 334 331 326 324 320 317 315 313 313 312
324 327 329 333 334 336 331 332 336 333 331 330 329 328 337 338 340 338 337 336 336 338 337 335 337 338 338 338 339 339 340 339 338 335 331 328 322 319 315 314 312 312 311 312
320 322 327 327 331 331 328 329 328 328 328 328 328 323 326 337 335 334 336 334 334 336 335 335 336 338 337 337 338 339 339 337 334 330 327 322 317 315 313 312 311 311 311 310
315 318 319 324 324 324 324 325 326 326 325 325 324 323 321 324 334 334 335 335 334 336 334 335 334 334 335 334 336 338 336 332 326 319 316 314 313 311 311 311 311 310 309 309
314 315 316 318 319 319 319 323 321 322 322 323 322 321 320 321 328 330 331 331 331 332 332 334 334 333 333 331 331 332 327 322 316 314 312 310 309 310 309 310 310 310 308 307
311 314 316 318 319 320 320 319 319 318 320 320 320 320 320 320 323 323 324 325 326 326 329 331 332 332 331 328 327 323 320 318 313 310 309 309 309 309 309 309 309 308 306 305
Wind_Speed
15 12 14 16 17 20 21 14 17 17 16 10 28 15 16 19 25 19 17 18 19 20 22 28 29 30 28 29 29 30 24 20 27 23 17 16 15 10 11 9 9 10 11 10
15 15 18 18 17 16 14 14 19 16 19 14 29 14 16 22 24 14 17 17 19 19 19 24 32 31 34 34 33 33 28 26 25 21 17 21 17 13 12 12 14 11 12 12
17 18 18 15 19 9 14 15 20 21 13 16 14 13 13 16 15 19 16 17 19 21 21 20 25 32 29 35 36 35 32 28 26 22 22 21 21 17 15 17 16 15 12 11
17 19 17 12 15 14 15 17 20 22 15 12 14 13 14 15 17 15 14 16 14 19 22 21 22 31 36 33 36 34 32 33 29 25 26 27 26 23 23 27 22 19 16 15
17 19 12 17 15 17 15 21 18 18 19 17 16 11 11 12 15 17 16 16 13 16 20 24 25 35 39 35 33 30 33 33 29 31 27 30 27 29 27 26 25 23 18 17
17 18 15 14 16 15 17 19 20 18 13 14 19 16 16 15 15 17 17 13 15 15 15 21 30 36 37 37 28 34 34 27 26 26 27 33 28 26 27 23 29 26 22 18
19 20 17 18 13 15 19 12 10 13 13 14 16 18 15 16 15 15 15 10 12 13 16 15 20 20 24 36 36 34 37 32 31 30 31 32 27 30 30 30 27 25 22 20
15 14 23 18 19 18 19 11 11 14 13 14 16 20 18 21 21 19 13 4 7 8 7 6 17 24 45 31 8 24 31 32 32 32 29 21 25 28 31 28 27 25 24 24
15 22 18 9 15 16 18 15 16 16 17 15 16 20 19 23 9 6 3 3 3 4 7 8 4 27 38 49 48 39 34 32 32 31 25 22 24 25 27 27 26 25 23 24
14 16 19 19 7 16 18 16 14 12 16 18 16 19 13 6 14 7 3 5 6 6 7 7 6 24 28 36 41 35 30 28 31 28 24 23 24 25 26 29 27 24 20 26
13 11 15 18 15 12 12 16 14 13 12 12 13 12 6 8 5 5 9 9 10 9 9 7 5 27 28 30 31 28 29 31 27 24 23 23 24 26 28 26 31 24 21 27
12 4 10 19 20 18 16 16 14 10 13 13 13 14 10 0 9 8 9 8 8 5 3 4 9 26 31 33 33 31 32 29 24 23 24 25 27 27 27 27 29 24 25 27
8 7 10 15 15 17 19 17 16 13 8 15 13 13 10 9 11 8 6 9 10 10 10 8 9 8 18 23 22 23 28 28 28 25 25 24 28 29 29 28 32 26 28 27
2 7 12 13 16 14 14 18 19 17 13 12 15 17 17 18 13 15 10 9 11 10 13 14 11 12 14 21 26 23 22 24 27 31 26 28 28 28 30 29 30 29 30 30
6 13 17 21 23 25 26 26 24 17 19 19 19 21 19 19 14 13 8 6 10 13 10 7 9 13 18 21 23 28 30 30 30 30 24 27 30 32 30 29 27 30 29 31
12 16 18 26 24 24 28 32 28 27 25 21 19 20 15 14 15 18 14 12 12 11 6 7 7 5 9 24 27 29 31 36 35 31 28 30 32 33 33 33 31 30 30 31
14 10 13 19 18 21 29 26 28 26 26 24 21 19 18 18 15 15 16 13 14 11 10 8 6 3 9 10 8 20 26 26 33 31 27 32 33 32 29 30 31 28 29 29
16 15 11 14 16 24 20 18 22 25 23 23 24 21 19 18 18 17 16 17 8 9 7 4 2 7 6 3 3 6 22 25 24 26 27 32 33 33 33 32 31 32 30 30
17 14 12 14 17 25 34 22 19 19 22 22 22 21 22 17 16 15 12 12 3 8 11 8 12 12 10 8 8 7 11 19 22 21 25 32 33 35 38 35 31 29 28 25
21 20 14 15 19 27 29 20 21 24 21 20 22 22 17 14 13 11 9 10 11 13 13 9 9 8 7 3 3 6 8 14 19 20 21 28 34 36 34 34 31 31 29 29
14 8 15 16 19 22 22 22 22 14 10 25 32 20 14 16 9 10 9 10 9 10 12 8 5 7 8 5 3 4 5 9 19 19 23 25 27 31 33 33 32 33 32 30
16 15 14 10 11 13 9 11 7 8 18 19 26 29 19 9 9 8 9 8 9 9 9 6 5 6 6 4 5 5 6 9 14 23 29 27 29 30 36 38 34 33 32 29
10 9 6 8 11 17 19 17 1 7 16 20 19 29 32 16 8 8 8 6 5 6 5 8 3 7 3 3 5 7 8 15 17 27 28 29 30 35 39 39 35 32 31 27
19 18 14 14 11 21 18 14 17 13 10 15 14 23 29 42 8 7 8 5 4 5 4 7 3 3 5 2 2 2 12 22 29 29 32 33 36 32 33 34 35 33 30 26
15 19 20 22 21 21 16 11 13 10 11 14 10 15 20 27 26 8 8 9 6 6 9 3 1 3 2 2 2 8 15 25 27 28 30 28 31 32 33 31 32 31 31 31
16 20 14 16 19 18 21 19 16 12 4 4 8 14 18 21 31 19 8 9 9 7 6 5 6 5 5 8 13 17 20 25 29 25 25 29 31 31 31 31 29 30 31 26
Wind_Direction
221 238 236 234 230 252 266 302 243 261 138 72 302 217 172 154 230 196 205 188 189 191 185 181 189 184 183 186 183 187 187 185 168 167 185 164 155 159 155 169 154 164 153 150
243 224 249 249 251 245 286 290 278 278 165 166 213 241 182 187 214 209 209 201 188 189 193 183 185 189 187 185 183 188 188 182 171 169 189 177 171 176 166 175 165 168 167 151
233 244 219 241 260 241 257 269 274 274 186 191 259 224 243 270 256 194 212 232 195 189 190 190 186 189 191 185 180 181 183 180 174 177 164 155 163 161 170 168 170 162 174 157
252 247 271 274 251 263 252 247 257 276 274 219 228 255 255 245 265 276 266 213 207 197 194 190 191 188 193 190 181 179 175 171 173 173 177 171 173 179 175 177 175 167 176 160
255 244 255 264 252 268 260 274 259 250 273 284 249 228 250 232 230 247 237 244 233 217 199 194 195 196 190 190 177 179 165 167 172 176 173 185 185 196 188 177 170 169 172 165
255 274 266 245 262 242 270 266 269 277 262 254 260 266 264 257 231 235 255 231 226 219 237 208 203 199 186 178 166 154 155 159 170 178 182 199 196 175 183 180 161 168 172 169
254 247 245 263 261 256 244 251 255 247 248 256 255 249 250 260 265 257 256 251 231 223 220 244 212 198 149 158 151 152 157 165 180 193 202 203 196 182 184 178 167 169 171 176
273 245 220 217 220 253 231 225 246 255 249 260 255 252 250 240 243 241 254 353 334 341 326 302 110 113 100 37 360 179 169 170 184 193 196 192 201 189 186 181 176 176 176 179
265 277 287 255 199 217 256 223 237 256 272 279 285 285 251 228 203 210 190 279 280 281 287 286 302 129 149 169 187 220 180 180 184 188 190 197 197 192 189 186 181 182 186 181
237 264 277 289 237 228 221 255 241 224 243 260 274 281 286 243 201 185 204 232 216 225 259 266 346 150 162 171 191 188 181 182 184 183 186 188 198 198 193 189 186 191 183 165
257 251 260 280 271 246 247 240 250 277 273 256 248 265 316 33 114 207 204 211 209 200 222 222 177 152 163 169 179 180 187 190 177 183 185 192 197 199 194 191 191 189 177 165
275 282 250 258 267 274 231 265 249 235 261 271 281 282 308 335 311 176 209 223 197 201 227 301 153 146 162 169 174 184 187 194 187 182 186 192 193 195 196 192 188 182 164 160
347 292 260 254 266 270 269 239 235 246 247 249 266 273 276 337 308 264 248 266 194 185 189 197 166 180 166 164 181 190 190 197 206 204 190 193 191 192 197 191 184 179 166 161
28 267 275 263 254 274 269 260 238 240 249 258 256 278 289 292 278 272 200 234 260 225 205 197 190 178 184 181 182 191 199 213 205 213 204 193 187 189 192 191 182 176 166 168
247 264 272 269 272 282 284 280 272 255 250 239 247 248 249 255 268 277 219 241 241 274 246 245 203 200 183 183 187 186 189 197 209 206 210 189 183 186 188 186 183 171 165 161
327 263 246 262 268 270 271 269 270 270 271 273 253 255 259 255 274 281 278 213 201 234 259 249 248 258 185 184 189 191 194 194 195 199 208 185 179 182 182 179 178 167 159 169
303 310 306 278 281 271 258 258 265 271 271 269 264 270 267 270 252 246 257 261 261 221 213 236 257 68 64 31 170 198 195 191 187 192 187 174 171 171 171 173 161 151 156 172
276 281 282 283 285 264 274 273 270 262 267 272 275 278 275 278 280 279 282 276 263 236 243 203 93 75 86 90 296 322 191 189 183 163 159 166 163 161 165 156 153 161 166 171
257 257 266 262 263 275 267 271 275 278 281 281 280 280 279 280 287 271 286 290 273 103 90 59 56 63 49 19 334 279 213 175 174 164 164 161 161 154 156 154 160 161 159 157
230 228 241 242 248 256 268 265 264 280 280 315 295 280 281 277 271 271 59 36 64 71 72 80 88 97 89 82 360 269 230 164 156 171 170 164 159 157 155 159 155 157 151 161
281 273 230 257 259 258 283 303 297 279 311 330 344 308 289 241 261 121 115 94 73 85 89 90 82 101 94 103 157 224 203 185 158 169 163 158 160 155 152 153 148 147 149 157
270 268 269 235 225 271 344 352 347 334 320 338 338 340 305 284 115 121 117 121 124 132 126 125 115 114 111 145 163 195 198 171 150 161 156 156 152 147 146 147 145 146 149 152
286 320 301 285 291 316 316 315 309 299 303 334 337 340 346 261 161 148 138 136 129 93 93 107 90 111 108 177 189 188 188 155 149 147 143 143 145 149 152 144 143 140 147 144
289 298 288 306 309 322 324 9 15 359 338 329 341 331 337 332 181 117 113 110 96 71 128 122 148 208 169 200 218 228 144 140 136 133 136 141 143 142 143 143 145 146 151 158
287 302 293 289 290 296 300 311 331 350 355 324 299 320 328 315 327 27 50 54 52 37 353 85 327 274 165 140 147 145 136 137 132 136 137 137 141 141 140 143 150 155 167 170
270 272 270 276 298 304 300 302 292 280 297 285 313 318 304 324 311 348 14 13 357 333 200 202 193 236 157 162 148 142 146 150 139 133 138 144 143 142 145 150 155 170 171 178